Flag for Germany Weather past 2 weeks in Buchholz in der Nordheide, Lower Saxony, Germany

43 °F

Passing clouds.

Feels Like: 39 °F
Forecast: 35 / 41 °F
Wind: 6 mph from West

Location: Hamburg-Finkenwerder

Current Time: Nov 26, 2015 at 12:02:21 PM

Latest Report: Nov 26, 2015 at 11:20 AM

Visibility: N/A

Pressure: 29.95 "Hg

Humidity: 100%

Dew point: 43 °F

Location of Buchholz in der NordheideLocation

Historic Weather in Buchholz in der Nordheide — Graph


Buchholz in der Nordheide temperature yesterday

Maximum temperature yesterday: 43 °F (at 1:50 PM)
Minimum temperature yesterday: 37 °F (at 5:50 AM)
Average temperature yesterday: 41 °F

Past Weeks' High & Low Weather Summary

High57 °F (Nov 11, 10:20 AM)100% (Nov 11, 10:20 AM)30.21 "Hg (Nov 11, 10:20 AM)
Low32 °F (Nov 23, 8:20 AM)63% (Nov 13, 2:20 PM)29.33 "Hg (Nov 21, 8:50 AM)
Average47 °F92%29.81 "Hg
* Reported Nov 11 10:20 AM — Nov 26 10:50 AM, Buchholz in der Nordheide, Weather by CustomWeather, © 2015

Note: Actual official high and low records may vary slightly from our data, if they occured in-between our weather recording intervals... More about our weather records


Buchholz in der Nordheide weather history for previous 24 hours

Time TempWeatherWind HumidityBarometerVisibility
10:50 AM
Thu, Nov 26
41 °FPassing clouds.6 mph100%29.92 "HgN/A
10:20 AM39 °FPassing clouds.7 mph100%29.92 "HgN/A
9:50 AM37 °FPassing clouds.7 mph100%29.92 "HgN/A
9:20 AM36 °FPassing clouds.7 mph100%29.89 "HgN/A
8:50 AM36 °FPassing clouds.7 mph100%29.89 "HgN/A
8:20 AM36 °FPassing clouds.7 mph100%29.86 "HgN/A
7:50 AM36 °FPassing clouds.8 mph100%29.86 "HgN/A
7:20 AM37 °FPassing clouds.10 mph100%29.83 "HgN/A
6:50 AM37 °FPassing clouds.8 mph100%29.83 "HgN/A
6:20 AM37 °FClear.9 mph100%29.80 "Hg10 mi
5:50 AM37 °FClear.9 mph100%29.80 "Hg10 mi
8:50 PM
Wed, Nov 25
39 °FPassing clouds.5 mph100%29.65 "Hg4 mi
8:20 PM41 °FPassing clouds.3 mph100%29.62 "Hg4 mi
7:50 PM41 °FPassing clouds.3 mph100%29.62 "Hg4 mi
7:20 PM41 °FPassing clouds.5 mph100%29.62 "Hg4 mi
6:50 PM41 °FPassing clouds.6 mph100%29.62 "Hg4 mi
6:20 PM41 °FLight rain. Partly cloudy.7 mph100%29.62 "Hg4 mi
5:50 PM41 °FPartly cloudy.6 mph100%29.59 "Hg4 mi
5:20 PM43 °FPartly cloudy.7 mph100%29.59 "Hg4 mi
4:50 PM43 °FPassing clouds.6 mph100%29.59 "Hg4 mi
4:20 PM43 °FPartly cloudy.5 mph100%29.59 "Hg4 mi
3:50 PM43 °FPartly sunny.7 mph100%29.59 "Hg4 mi
3:20 PM43 °FLight rain. Partly sunny.7 mph100%29.56 "Hg4 mi
2:50 PM43 °FPartly sunny.6 mph100%29.56 "Hg4 mi
2:20 PM43 °FBroken clouds.7 mph100%29.56 "Hg4 mi
1:50 PM43 °FPartly sunny.8 mph100%29.56 "Hg4 mi
1:20 PM41 °FPartly sunny.9 mph100%29.56 "Hg5 mi
12:50 PM41 °FFog.9 mph100%29.56 "Hg3 mi
12:20 PM41 °FFog.9 mph100%29.56 "Hg2 mi
Weather by CustomWeather, © 2015

See weather overviewHow to use our weather pages